Flag for Portugal Weather past 2 weeks in Porto, Portugal

Now
59 °F

Clear.


Feels Like: 59 °F
Forecast: 55 / 68 °F
Wind: 5 mph from North

Location: Porto / Pedras Rubras

Current Time: May 29, 2015 at 3:46:52 AM

Latest Report: May 29, 2015 at 3:00 AM


Visibility: 10 mi

Pressure: 29.89 "Hg

Humidity: 82%

Dew point: 54 °F

Location of PortoLocation

Historic Weather in Porto — Graph

°F

Porto temperature yesterday

Maximum temperature yesterday: 81 °F (at 1:30 PM)
Minimum temperature yesterday: 59 °F (at 5:00 AM)
Average temperature yesterday: 71 °F

Past Weeks' High & Low Weather Summary

 TemperatureHumidityPressure
High84 °F (May 27, 1:00 PM)100% (May 14, 3:00 AM)30.36 "Hg (May 14, 3:00 AM)
Low48 °F (May 15, 5:03 AM)23% (May 27, 1:00 PM)29.89 "Hg (May 29, 2:00 AM)
Average65 °F62%30.12 "Hg
* Reported May 14 2:00 AM — May 29 2:30 AM, Porto, Weather by CustomWeather, © 2015

Note: Actual official high and low records may vary slightly from our data, if they occured in-between our weather recording intervals... More about our weather records

Advertising

Porto weather history for previous 24 hours

 ConditionsComfort  
Time TempWeatherWind HumidityBarometerVisibility
2:30 AM
Fri, May 29
59 °FClear.6 mph88%29.89 "Hg10 mi
2:00 AM61 °FClear.7 mph83%29.89 "Hg10 mi
1:30 AM61 °FClear.5 mph88%29.92 "Hg10 mi
1:00 AM61 °FClear.5 mph88%29.92 "Hg10 mi
12:30 AM61 °FClear.5 mph88%29.92 "Hg10 mi
12:00 AM61 °FClear.2 mph88%29.92 "Hg10 mi
11:30 PM
Thu, May 28
61 °FClear.1 mph88%29.92 "Hg10 mi
11:00 PM61 °FClear.No wind88%29.92 "Hg10 mi
10:30 PM61 °FClear.No wind88%29.92 "Hg10 mi
10:00 PM63 °FClear.1 mph83%29.92 "Hg10 mi
9:30 PM64 °FSunny.2 mph78%29.92 "Hg10 mi
9:00 PM68 °FSunny.3 mph73%29.92 "Hg10 mi
8:30 PM70 °FSunny.3 mph69%29.92 "Hg10 mi
8:00 PM72 °FPassing clouds.3 mph65%29.92 "HgN/A
7:30 PM73 °FPassing clouds.3 mph57%29.92 "HgN/A
7:00 PM75 °FPassing clouds.5 mph54%29.92 "HgN/A
6:30 PM77 °FPassing clouds.8 mph51%29.92 "HgN/A
6:00 PM79 °FPassing clouds.9 mph48%29.92 "HgN/A
5:30 PM79 °FPassing clouds.10 mph42%29.95 "HgN/A
5:00 PM81 °FPassing clouds.10 mph39%29.95 "HgN/A
4:30 PM81 °FPassing clouds.12 mph39%29.95 "HgN/A
4:00 PM81 °FPassing clouds.10 mph39%29.95 "HgN/A
3:30 PM81 °FPassing clouds.12 mph34%29.95 "HgN/A
3:00 PM81 °FPassing clouds.10 mph37%29.95 "HgN/A
2:30 PM81 °FPassing clouds.9 mph37%29.95 "HgN/A
2:00 PM81 °FSunny.10 mph39%29.98 "Hg10 mi
1:30 PM81 °FPassing clouds.9 mph39%29.98 "HgN/A
1:00 PM79 °FPassing clouds.8 mph45%29.98 "HgN/A
12:30 PM79 °FPassing clouds.6 mph45%29.98 "HgN/A
12:00 PM77 °FPassing clouds.6 mph47%29.98 "HgN/A
11:30 AM77 °FPassing clouds.5 mph44%29.98 "HgN/A
11:00 AM75 °FSunny.6 mph50%29.98 "Hg10 mi
10:30 AM73 °FSunny.7 mph53%29.98 "Hg10 mi
10:00 AM79 °FSunny.7 mph45%29.98 "Hg10 mi
9:30 AM77 °FPassing clouds.6 mph36%29.98 "HgN/A
9:00 AM75 °FPassing clouds.6 mph44%29.98 "HgN/A
8:30 AM73 °FPassing clouds.5 mph47%29.98 "HgN/A
8:00 AM73 °FPassing clouds.5 mph47%29.98 "HgN/A
7:30 AM66 °FSunny.2 mph68%29.98 "Hg10 mi
7:00 AM63 °FClear.No wind77%29.98 "Hg10 mi
6:30 AM59 °FPassing clouds.3 mph82%29.95 "HgN/A
6:00 AM59 °FPassing clouds.5 mph88%29.95 "HgN/A
5:30 AM59 °FClear.5 mph88%29.95 "Hg10 mi
5:00 AM59 °FPassing clouds.3 mph88%29.95 "HgN/A
4:30 AM64 °FPassing clouds.7 mph73%29.95 "HgN/A
4:00 AM64 °FPassing clouds.3 mph83%29.95 "HgN/A
3:30 AM61 °FPassing clouds.3 mph83%29.95 "HgN/A
3:00 AM66 °FPassing clouds.3 mph73%29.95 "HgN/A
Weather by CustomWeather, © 2015

See weather overviewHow to use our weather pages